Location: Geseke
(51.6397°N, 8.5105°E)
Time: 00:40:31
(UTC+02:00)

Tianhe-1 - Visible Passes

Search period start: 20 June 2021 00:00
Search period end: 30 June 2021 00:00
Orbit: 375 x 386 km, 41.5° (Epoch: 19 June)

Date Brightness Start Highest point End Pass type
(mag) Time Alt. Az. Time Alt. Az. Time Alt. Az.
24 Jun 3.4 04:00:55 10° S 04:01:39 11° SSE 04:02:23 10° SSE visible
26 Jun 3.2 03:35:45 12° S 03:36:04 12° S 03:37:26 10° SE visible
27 Jun 3.1 04:09:38 10° SSW 04:11:14 13° S 04:12:50 10° SSE visible
28 Jun 3.3 03:11:26 12° SSE 03:11:26 12° SSE 03:12:03 10° SSE visible
29 Jun 3.1 03:45:38 12° S 03:45:38 12° S 03:46:59 10° SSE visible
